Weather History for Pompano Beach, FL

Change the Weather History Date:

Monday, July 29, 2013

  Actual Average Record
Temperature  
Mean Temperature 84 °F -  
Max Temperature 91 °F 92 °F 99 °F (1991)
Min Temperature 79 °F 74 °F 69 °F (1974)
Cooling Degree Days 20    
Growing Degree Days 34 (Base 50)    
Moisture  
Dew Point 75 °F    
Average Humidity 73    
Maximum Humidity 88    
Minimum Humidity 63    
Precipitation  
Precipitation 0.00 in - - ()
Sea Level Pressure  
Sea Level Pressure 30.10 in    
Wind  
Wind Speed 7 mph (East)    
Max Wind Speed 18 mph    
Max Gust Speed 23 mph    
Visibility 10 miles    
Events      
Averages and records for this station are not official NWS values.
T = Trace of Precipitation, MM = Missing Value Source: NWS Daily Summary

Daily Weather History Graph

Daily Weather History Graph

Search for Another Location

Airport:

Trip Planner

Search our weather history database for the weather conditions in past years. The results will help you decide how hot, cold, wet, or windy it might be!

Date:

Astronomy

Jul. 29, 2013 Rise Set
Actual Time 6:44 AM EDT 8:08 PM EDT
Civil Twilight 6:19 AM EDT 8:33 PM EDT
Nautical Twilight 5:49 AM EDT 9:03 PM EDT
Astronomical Twilight 5:18 AM EDT 9:34 PM EDT
Moon 12:16 AM EDT (7/29) 1:35 PM EDT (7/29)
Length of Visible Light 14h 14m
Length of Day
13h 24m
Waning Gibbous, 51% of the Moon is Illuminated
Jul 29
Waning Gibbous
Jul 29
Last Quarter
Aug 6
New
Aug 14
First Quarter
Aug 20
Full

Hourly Weather History & Observations

Time (EDT) Temp. Heat Index Dew Point Humidity Pressure Visibility Wind Dir Wind Speed Gust Speed Precip Events Conditions
12:53 AM 84.0 °F 92.6 °F 75.9 °F 76% 30.06 in 10.0 mi SE 9.2 mph - N/A   Unknown
1:53 AM 84.0 °F 91.9 °F 75.0 °F 74% 30.05 in 10.0 mi SE 5.8 mph - N/A   Unknown
2:53 AM 82.9 °F 90.2 °F 75.0 °F 77% 30.05 in 10.0 mi SE 5.8 mph - N/A   Unknown
3:53 AM 82.9 °F 90.2 °F 75.0 °F 77% 30.04 in 10.0 mi SE 3.5 mph - N/A   Unknown
4:53 AM 80.1 °F 85.1 °F 75.0 °F 85% 30.04 in 10.0 mi Calm Calm - N/A   Unknown
5:53 AM 79.0 °F - 75.0 °F 88% 30.05 in 10.0 mi NW 4.6 mph - N/A   Unknown
6:53 AM 79.0 °F - 75.0 °F 88% 30.06 in 10.0 mi Calm Calm - N/A   Unknown
7:53 AM 80.1 °F 85.1 °F 75.0 °F 85% 30.09 in 10.0 mi NE 4.6 mph - 0.00 in   Scattered Clouds
8:53 AM 82.9 °F 90.2 °F 75.0 °F 77% 30.10 in 10.0 mi East 6.9 mph - N/A   Scattered Clouds
9:53 AM 87.1 °F 96.3 °F 75.0 °F 67% 30.12 in 10.0 mi ENE 5.8 mph - N/A   Scattered Clouds
10:53 AM 88.0 °F 97.5 °F 75.0 °F 65% 30.12 in 10.0 mi East 6.9 mph - N/A   Mostly Cloudy
11:53 AM 89.1 °F 100.2 °F 75.9 °F 65% 30.13 in 10.0 mi ESE 9.2 mph - N/A   Clear
12:53 PM 89.1 °F 100.2 °F 75.9 °F 65% 30.13 in 10.0 mi East 8.1 mph - N/A   Scattered Clouds
1:53 PM 90.0 °F 102.5 °F 77.0 °F 65% 30.12 in 10.0 mi East 11.5 mph - N/A   Scattered Clouds
2:53 PM 90.0 °F 101.3 °F 75.9 °F 63% 30.11 in 10.0 mi East 9.2 mph - N/A   Scattered Clouds
3:53 PM 87.1 °F 98.8 °F 77.0 °F 72% 30.10 in 10.0 mi East 18.4 mph 23.0 mph N/A   Mostly Cloudy
4:07 PM 87.8 °F 99.7 °F 77.0 °F 70% 30.09 in 10.0 mi ESE 15.0 mph 23.0 mph N/A   Partly Cloudy
4:53 PM 87.1 °F 97.3 °F 75.9 °F 69% 30.11 in 10.0 mi East 11.5 mph - N/A   Partly Cloudy
5:53 PM 87.1 °F 94.5 °F 73.0 °F 63% 30.10 in 10.0 mi East 8.1 mph - N/A   Partly Cloudy
6:53 PM 86.0 °F 93.0 °F 73.0 °F 65% 30.10 in 10.0 mi ESE 8.1 mph - N/A   Clear
7:53 PM 84.9 °F 92.1 °F 73.9 °F 69% 30.12 in 10.0 mi East 9.2 mph - N/A   Clear
8:53 PM 84.9 °F 93.3 °F 75.0 °F 72% 30.13 in 10.0 mi ESE 6.9 mph - N/A   Unknown
9:53 PM 84.9 °F 94.1 °F 75.9 °F 74% 30.15 in 10.0 mi East 8.1 mph - N/A   Unknown
10:53 PM 84.9 °F 95.3 °F 77.0 °F 77% 30.14 in 10.0 mi East 8.1 mph - N/A   Unknown
11:53 PM 84.9 °F 95.3 °F 77.0 °F 77% 30.15 in 10.0 mi East 6.9 mph - N/A   Unknown